[[{"header":{"parameterUnit":"m.s-1","parameterCategory":1,"la1":30.2991,"la2":30.254,"lo1":-89.0895,"lo2":-89.0444,"dy":0.0017,"dx":0.0017,"nx":28,"ny":28,"refTime":"2023-10-17T21:00:00:Z","depth":0,"parameterNumber":2,"parameterNumberName":"U-component_of_WINDS"},"data":[0,0,0,0,0,0,0,0,0,0,0,0,0,0,0,0,0,0,0,0,0,0,0,0,0,0,0,0,0,0,0,0,0,0,0,0,0,0,0,0,0,0,0,0,0,0,0,0,0,0,0,0,0,0,0,0,0,0,-1.6423,-1.6425,0,-1.6622,-1.6624,-1.6626,-1.6737,-1.6737,-1.6737,-1.6738,-1.6936,-1.6941,-1.6946,0,0,0,0,0,0,0,0,0,0,0,0,0,-1.6132,-1.6137,-1.6423,-1.6425,-1.6428,-1.6622,-1.6624,-1.6627,-1.6737,-1.6737,-1.6738,-1.6738,-1.6934,-1.694,-1.6946,0,0,0,0,0,0,0,0,0,0,0,0,0,-1.6287,-1.6139,-1.6422,-1.6506,-1.6515,-1.6621,-1.6624,-1.6628,-1.6737,-1.6737,-1.6738,-1.6738,-1.6932,-1.694,-1.6947,-1.6983,0,0,-1.697,-1.6973,0,0,0,0,0,0,0,0,-1.6278,-1.6298,-1.6491,-1.65,-1.6511,-1.6655,-1.6595,-1.6747,-1.6737,-1.6652,-1.6738,-1.6738,-1.6842,-1.6857,-1.6893,-1.6992,-1.7001,-1.697,-1.6975,-1.6978,-1.698,0,0,0,0,0,0,0,-1.6267,-1.629,-1.6501,-1.6494,-1.6506,-1.6532,-1.6554,-1.6624,-1.6742,-1.666,-1.6668,-1.6691,-1.6847,-1.6885,-1.6898,-1.7004,-1.697,-1.6977,-1.6981,-1.6984,-1.7142,-1.7142,0,0,0,0,0,0,-1.6244,-1.628,-1.6495,-1.6507,-1.6394,-1.6537,-1.6562,-1.6608,-1.6741,-1.6762,-1.669,-1.6695,-1.6872,-1.6889,-1.6906,-1.6956,-1.6978,-1.6985,-1.6989,-1.7142,-1.7142,-1.7142,0,0,0,0,0,0,-1.6237,-1.6262,-1.6487,-1.6396,-1.6427,-1.6541,-1.6592,-1.6612,-1.665,-1.6764,-1.6785,-1.6708,-1.6873,-1.6895,-1.6963,-1.6965,-1.6988,-1.6995,-1.7143,-1.7142,-1.7142,-1.7058,0,0,0,0,0,0,-1.6229,-1.6259,-1.6275,-1.6396,-1.6431,-1.6542,-1.6592,-1.6615,-1.6663,-1.6672,-1.6786,-1.6806,-1.6875,-1.6952,-1.6971,-1.6975,-1.7001,-1.7143,-1.7143,-1.7142,-1.7061,-1.7054,-1.7049,0,0,0,0,0,-1.6218,-1.6242,-1.6275,-1.6301,-1.6454,-1.6542,-1.6563,-1.6644,-1.6663,-1.6679,-1.6753,-1.6802,-1.6962,-1.6958,-1.698,-1.6987,-1.7143,-1.7143,-1.7142,-1.7063,-1.7056,-1.7049,0,0,0,0,0,0,-1.6117,-1.626,-1.6298,-1.6362,-1.644,-1.6561,-1.6584,-1.6633,-1.6705,-1.671,-1.6806,-1.6831,-1.689,-1.6946,-1.6938,-1.7029,-1.7058,-1.7061,-1.699,-1.6984,-1.6978,-1.6963,-1.7007,0,0,0,0,0,-1.6102,-1.6164,-1.6285,-1.633,-1.6367,-1.6468,-1.651,-1.6566,-1.6649,-1.6682,-1.676,-1.6837,-1.6905,-1.6948,-1.7016,-1.707,-1.7096,-1.7085,-1.7079,-1.7074,-1.7076,-1.7108,-1.7104,-1.714,-1.714,-1.714,0,0,-1.6072,-1.6158,-1.6191,-1.6312,-1.6378,-1.6438,-1.6495,-1.6556,-1.6601,-1.6691,-1.6761,-1.682,-1.6913,-1.6974,-1.7004,-1.7022,-1.7072,-1.7073,-1.7068,-1.7073,-1.7107,-1.7103,-1.71,-1.7139,-1.7139,-1.714,0,0,-1.6048,-1.612,-1.6166,-1.6231,-1.6332,-1.64,-1.641,-1.6525,-1.6568,-1.664,-1.6709,-1.6763,-1.6877,-1.6941,-1.6988,-1.6988,-1.7036,-1.7007,-1.6976,-1.7006,-1.7003,-1.7001,-1.7,-1.6999,-1.7009,-1.7009,-1.7009,0,-1.5998,-1.6093,-1.6182,-1.624,-1.6291,-1.6377,-1.6422,-1.6481,-1.6598,-1.663,-1.6649,-1.6795,-1.6863,-1.694,-1.694,-1.6975,-1.699,-1.6994,-1.6997,-1.6996,-1.6995,-1.6995,-1.6995,-1.7005,-1.7005,-1.7006,-1.7006,0,-1.6026,-1.609,-1.6115,-1.6228,-1.6281,-1.6332,-1.6428,-1.6471,-1.6522,-1.6587,-1.6659,-1.6744,-1.6831,-1.6854,-1.6904,-1.6937,-1.6945,-1.6979,-1.701,-1.6986,-1.6988,-1.6989,-1.6999,-1.7,-1.7002,-1.7003,0,0,-1.5943,-1.6105,-1.6113,-1.6165,-1.6283,-1.6333,-1.6388,-1.6476,-1.651,-1.6588,-1.6635,-1.6731,-1.6763,-1.6816,-1.6874,-1.69,-1.6894,-1.6931,-1.6935,-1.6921,-1.6936,-1.6909,-1.6907,-1.6927,-1.6928,-1.6928,-1.6927,0,-1.5936,-1.604,-1.6122,-1.6194,-1.6255,-1.6337,-1.6385,-1.6461,-1.6523,-1.6582,-1.665,-1.6716,-1.6754,-1.6787,-1.6817,-1.6889,-1.6898,-1.689,-1.697,-1.6972,-1.6944,-1.6909,-1.6881,-1.6876,-1.6929,-1.6929,-1.6929,0,-1.5941,-1.6017,-1.6096,-1.6208,-1.6236,-1.6278,-1.6364,-1.642,-1.6508,-1.6551,-1.6611,-1.6672,-1.6731,-1.6757,-1.684,-1.6832,-1.687,-1.6911,-1.6912,-1.6922,-1.6948,-1.6917,-1.6877,-1.6875,-1.6932,-1.6931,-1.6931,0,-1.5871,-1.5994,-1.6058,-1.61,-1.6232,-1.6259,-1.6315,-1.6403,-1.645,-1.6525,-1.6557,-1.6637,-1.668,-1.674,-1.682,-1.6832,-1.6895,-1.6927,-1.6931,-1.6929,-1.6939,-1.6937,-1.6904,-1.6965,-1.6965,-1.6965,-1.6965,0,-1.5854,-1.5899,-1.6029,-1.6067,-1.612,-1.6213,-1.6261,-1.6324,-1.6402,-1.6453,-1.6529,-1.6575,-1.6679,-1.6737,-1.6799,-1.6858,-1.6877,-1.6913,-1.6929,-1.6905,-1.6901,-1.6931,-1.6933,-1.6965,-1.6965,-1.6965,-1.6965,0,-1.5785,-1.5874,-1.5948,-1.6068,-1.6099,-1.6132,-1.6233,-1.6273,-1.634,-1.6404,-1.6424,-1.6528,-1.66,-1.6686,-1.6786,-1.6828,-1.6881,-1.6905,-1.6851,-1.6861,-1.6859,-1.6858,-1.6843,-1.6845,-1.6904,-1.6904,-1.6903,0,-1.5768,-1.5805,-1.5928,-1.5969,-1.6023,-1.6088,-1.6137,-1.6229,-1.6277,-1.638,-1.6407,-1.6486,-1.6553,-1.6665,-1.6748,-1.6824,-1.6851,-1.684,-1.6862,-1.6838,-1.6849,-1.6846,-1.6849,-1.6834,-1.6832,-1.6832,-1.6831,0,-1.5727,-1.5769,-1.5838,-1.5923,-1.5979,-1.605,-1.6123,-1.6151,-1.6259,-1.6308,-1.6384,-1.6437,-1.654,-1.6616,-1.6703,-1.6759,-1.6812,-1.6824,-1.6828,-1.6804,-1.6771,-1.6788,-1.6834,-1.6823,-1.6824,-1.6824,-1.6825,-1.6825,-1.5683,-1.572,-1.5813,-1.5887,-1.5952,-1.6019,-1.6062,-1.6135,-1.6201,-1.6293,-1.6343,-1.6417,-1.6504,-1.6627,-1.6681,-1.6739,-1.6758,-1.6765,-1.6767,-1.6767,-1.6759,-1.6763,-1.6756,-1.6756,-1.6756,-1.6757,-1.6757,0,-1.5646,-1.571,-1.5777,-1.5878,-1.5936,-1.5984,-1.6067,-1.6112,-1.6177,-1.6254,-1.632,-1.6407,-1.6481,-1.6571,-1.6651,-1.668,-1.6707,-1.6698,-1.6696,-1.6708,-1.6739,-1.6726,-1.6676,-1.6676,-1.6676,-1.6676,-1.6676,-1.6676,-1.5633,-1.5697,-1.575,-1.5847,-1.5911,-1.5986,-1.6029,-1.6091,-1.6153,-1.6247,-1.631,-1.6369,-1.6451,-1.6538,-1.6608,-1.6632,-1.6658,-1.6641,-1.6672,-1.6699,-1.6706,-1.6713,-1.6701,-1.6646,-1.6646,-1.6637,-1.6637,-1.6637]},{"header":{"parameterUnit":"m.s-1","parameterCategory":1,"la1":30.2991,"la2":30.254,"lo1":-89.0895,"lo2":-89.0444,"dy":0.0017,"dx":0.0017,"nx":28,"ny":28,"refTime":"2023-10-17T21:00:00:Z","depth":0,"parameterNumber":3,"parameterNumberName":"V-component_of_WINDS"},"data":[0,0,0,0,0,0,0,0,0,0,0,0,0,0,0,0,0,0,0,0,0,0,0,0,0,0,0,0,0,0,0,0,0,0,0,0,0,0,0,0,0,0,0,0,0,0,0,0,0,0,0,0,0,0,0,0,0,0,-0.1559,-0.1558,0,-0.148,-0.1479,-0.1479,-0.1436,-0.1436,-0.1436,-0.1436,-0.1359,-0.1357,-0.1355,0,0,0,0,0,0,0,0,0,0,0,0,0,-0.1675,-0.1673,-0.1559,-0.1558,-0.1557,-0.148,-0.1479,-0.1478,-0.1436,-0.1436,-0.1436,-0.1436,-0.1359,-0.1357,-0.1355,0,0,0,0,0,0,0,0,0,0,0,0,0,-0.1613,-0.1672,-0.1559,-0.1527,-0.1523,-0.1481,-0.1479,-0.1478,-0.1436,-0.1436,-0.1436,-0.1436,-0.136,-0.1357,-0.1354,-0.1339,0,0,-0.1345,-0.1344,0,0,0,0,0,0,0,0,-0.1617,-0.1609,-0.1532,-0.1529,-0.1525,-0.1468,-0.1492,-0.1432,-0.1436,-0.1469,-0.1436,-0.1436,-0.1395,-0.1389,-0.1375,-0.1336,-0.1332,-0.1345,-0.1343,-0.1342,-0.1341,0,0,0,0,0,0,0,-0.1621,-0.1612,-0.1528,-0.1531,-0.1527,-0.1517,-0.1508,-0.148,-0.1434,-0.1466,-0.1463,-0.1454,-0.1393,-0.1378,-0.1373,-0.1331,-0.1345,-0.1342,-0.1341,-0.134,-0.1274,-0.1274,0,0,0,0,0,0,-0.163,-0.1616,-0.153,-0.1526,-0.1571,-0.1515,-0.1505,-0.1486,-0.1434,-0.1426,-0.1454,-0.1453,-0.1383,-0.1377,-0.137,-0.1348,-0.1342,-0.1339,-0.1338,-0.1274,-0.1274,-0.1274,0,0,0,0,0,0,-0.1633,-0.1623,-0.1534,-0.157,-0.1558,-0.1513,-0.1493,-0.1485,-0.147,-0.1425,-0.1417,-0.1447,-0.1383,-0.1374,-0.1347,-0.1345,-0.1338,-0.1335,-0.1274,-0.1274,-0.1274,-0.1305,0,0,0,0,0,0,-0.1636,-0.1624,-0.1618,-0.157,-0.1556,-0.1511,-0.1492,-0.1483,-0.1464,-0.1461,-0.1416,-0.1409,-0.1382,-0.1351,-0.1344,-0.1341,-0.1333,-0.1274,-0.1274,-0.1274,-0.1304,-0.1306,-0.1308,0,0,0,0,0,-0.1641,-0.163,-0.1617,-0.1607,-0.1547,-0.1511,-0.1503,-0.1471,-0.1464,-0.1457,-0.1429,-0.141,-0.1346,-0.1349,-0.134,-0.1336,-0.1274,-0.1274,-0.1274,-0.1303,-0.1305,-0.1308,0,0,0,0,0,0,-0.168,-0.1623,-0.1609,-0.1582,-0.1552,-0.1504,-0.1494,-0.1475,-0.1447,-0.1445,-0.1408,-0.1398,-0.1374,-0.1352,-0.1356,-0.1318,-0.1308,-0.1307,-0.1333,-0.1335,-0.1337,-0.1343,-0.133,0,0,0,0,0,-0.1685,-0.166,-0.1613,-0.1594,-0.1579,-0.154,-0.1523,-0.1501,-0.1468,-0.1455,-0.1424,-0.1394,-0.1367,-0.135,-0.1323,-0.13,-0.129,-0.1293,-0.1295,-0.1297,-0.1296,-0.1282,-0.1283,-0.1274,-0.1274,-0.1274,0,0,-0.1697,-0.1663,-0.165,-0.1601,-0.1575,-0.155,-0.1529,-0.1504,-0.1485,-0.1452,-0.1423,-0.14,-0.1363,-0.1338,-0.1326,-0.1319,-0.1296,-0.1297,-0.1299,-0.1297,-0.1282,-0.1283,-0.1284,-0.1274,-0.1274,-0.1274,0,0,-0.1705,-0.1677,-0.1657,-0.1631,-0.1591,-0.1564,-0.156,-0.1514,-0.1497,-0.1468,-0.1441,-0.1419,-0.1374,-0.1348,-0.133,-0.1327,-0.1309,-0.1319,-0.133,-0.1316,-0.1317,-0.1317,-0.1316,-0.1316,-0.1318,-0.1319,-0.1319,0,-0.1724,-0.1685,-0.1651,-0.1626,-0.1606,-0.1573,-0.1553,-0.153,-0.1483,-0.147,-0.1463,-0.1404,-0.1378,-0.1346,-0.1345,-0.1331,-0.1325,-0.1324,-0.132,-0.132,-0.132,-0.1318,-0.1317,-0.132,-0.132,-0.132,-0.132,0,-0.1711,-0.1684,-0.1674,-0.1628,-0.1606,-0.1585,-0.1547,-0.153,-0.1509,-0.1484,-0.1454,-0.1421,-0.1385,-0.1376,-0.1357,-0.1341,-0.1339,-0.1327,-0.1316,-0.1322,-0.132,-0.1319,-0.1322,-0.1322,-0.1321,-0.1321,0,0,-0.1742,-0.1676,-0.1673,-0.1651,-0.1604,-0.1583,-0.156,-0.1524,-0.151,-0.1479,-0.1459,-0.142,-0.1408,-0.1387,-0.1364,-0.1353,-0.1352,-0.1342,-0.134,-0.1344,-0.1332,-0.1341,-0.1341,-0.134,-0.1339,-0.1339,-0.1335,0,-0.1743,-0.1698,-0.1666,-0.1635,-0.1609,-0.1577,-0.1557,-0.1526,-0.1502,-0.1477,-0.145,-0.1423,-0.141,-0.1396,-0.1384,-0.1355,-0.1349,-0.1355,-0.1321,-0.132,-0.1331,-0.134,-0.135,-0.1348,-0.1334,-0.1334,-0.1334,0,-0.1738,-0.1706,-0.1672,-0.1626,-0.1614,-0.1597,-0.1561,-0.1538,-0.1502,-0.1485,-0.1461,-0.1437,-0.1412,-0.1404,-0.1368,-0.1373,-0.1357,-0.1341,-0.134,-0.1336,-0.1327,-0.1335,-0.1346,-0.1346,-0.1332,-0.1332,-0.1332,0,-0.1763,-0.1712,-0.1684,-0.1667,-0.1614,-0.1602,-0.1579,-0.1543,-0.1524,-0.1493,-0.148,-0.1447,-0.1429,-0.1404,-0.1373,-0.137,-0.1341,-0.133,-0.1326,-0.1327,-0.1321,-0.1322,-0.1329,-0.1312,-0.1312,-0.1312,-0.1312,0,-0.1767,-0.1747,-0.1695,-0.1678,-0.1655,-0.1618,-0.1597,-0.1571,-0.1539,-0.1517,-0.1488,-0.1469,-0.1428,-0.1404,-0.1379,-0.1353,-0.1346,-0.1331,-0.1325,-0.1334,-0.1335,-0.1323,-0.1322,-0.1312,-0.1312,-0.1312,-0.1312,0,-0.1791,-0.1755,-0.1723,-0.1674,-0.1662,-0.1647,-0.1605,-0.1588,-0.1561,-0.1534,-0.1526,-0.1484,-0.1454,-0.142,-0.1378,-0.1362,-0.1338,-0.1329,-0.1349,-0.1345,-0.1343,-0.1344,-0.1342,-0.134,-0.1325,-0.1325,-0.1325,0,-0.1796,-0.1779,-0.1729,-0.1711,-0.1689,-0.1661,-0.1641,-0.1604,-0.1584,-0.1541,-0.1529,-0.1496,-0.1468,-0.1421,-0.1388,-0.1356,-0.1346,-0.1347,-0.1341,-0.135,-0.1345,-0.1346,-0.1344,-0.1349,-0.135,-0.135,-0.135,0,-0.1808,-0.179,-0.1761,-0.1726,-0.1701,-0.1672,-0.1641,-0.1629,-0.1586,-0.1565,-0.1533,-0.1511,-0.1468,-0.1435,-0.1399,-0.1377,-0.1356,-0.1352,-0.1349,-0.1358,-0.137,-0.1363,-0.1354,-0.1352,-0.1352,-0.1352,-0.1352,-0.1352,-0.1822,-0.1805,-0.1767,-0.1735,-0.1708,-0.168,-0.166,-0.1631,-0.1603,-0.1564,-0.1544,-0.1512,-0.1477,-0.1426,-0.1404,-0.1378,-0.1372,-0.1368,-0.1367,-0.1367,-0.1369,-0.1375,-0.1372,-0.1372,-0.1372,-0.1372,-0.1372,0,-0.1831,-0.1805,-0.1776,-0.1733,-0.1708,-0.169,-0.1655,-0.1636,-0.1607,-0.1575,-0.1547,-0.151,-0.1478,-0.1442,-0.1408,-0.1395,-0.1385,-0.1388,-0.1388,-0.1383,-0.1377,-0.1382,-0.1396,-0.1396,-0.1396,-0.1396,-0.1396,-0.1396,-0.1834,-0.1805,-0.1783,-0.174,-0.1714,-0.1681,-0.1663,-0.1637,-0.1611,-0.157,-0.1543,-0.1519,-0.1485,-0.1449,-0.1419,-0.1409,-0.1398,-0.1403,-0.1391,-0.1386,-0.1384,-0.1382,-0.1387,-0.1401,-0.1401,-0.1399,-0.1399,-0.1399]}]]